{"data":{"norad_id":64310,"intl_designator":"2025-123V","name":"STARLINK-34357","alt_names":[],"object_type":"PAYLOAD","status":"ACTIVE","operator":null,"country":"US","launch_date":"2025-06-08","launch_site_code":"AFWTR","launch_vehicle":null,"mission":null,"orbit_class":"UNKNOWN","rcs_meters":null,"size_class":null,"mass_kg":null,"dimensions":null,"purposes":["comms"],"wikipedia_slug":null,"has_3d_model":false,"image_url":null,"decayed_at":null,"tle_current":{"epoch":"2026-09-20T13:46:41.435616Z","epoch_age_seconds":131097,"freshness":"FRESH","line1":"1 64310U 25123V   26263.57409069  .00010370  00000+0  35546-3 0  9992","line2":"2 64310  70.0008  60.9634 0003349 280.0340  80.0458 15.30415870 70865","mean_motion":15.3041587,"eccentricity":0.0003349,"inclination_deg":70.0008,"raan_deg":60.9634,"arg_perigee_deg":280.034,"mean_anomaly_deg":80.0458,"bstar":0.00035546,"rev_number":7086,"period_min":94.092071849725,"perigee_km":472.2756245004,"apogee_km":476.86556804838,"semimajor_km":6852.7075962744,"source":"CELESTRAK","updated_at":"2026-09-21T09:00:35.308881Z"}}}